EN

Hourly Weather Dziedzice

Today, 26 October, Monday

Time Temperature Precipitation Wind Pressure Humidity
00:00 +11°C° 0 mm 3 mps 741 mmHg 90%
01:00 +11°C° 0 mm 3 mps 740 mmHg 90%
02:00 +10°C° 0 mm 3 mps 740 mmHg 90%
03:00 +10°C° 0 mm 3 mps 740 mmHg 91%
04:00 +10°C° 0 mm 3 mps 740 mmHg 91%
05:00 +10°C° 0 mm 3 mps 739 mmHg 91%
06:00 +10°C° 0 mm 3 mps 739 mmHg 90%
07:00 +10°C° 0 mm 3 mps 739 mmHg 90%
08:00 +11°C° 0 mm 3 mps 739 mmHg 85%
09:00 +13°C° 0 mm 3 mps 739 mmHg 81%
10:00 +14°C° 0 mm 3 mps 739 mmHg 76%
11:00 +14°C° 0 mm 3 mps 738 mmHg 76%
12:00 +14°C° 0 mm 3 mps 738 mmHg 76%
13:00 +14°C° 0 mm 3 mps 738 mmHg 76%
14:00 +14°C° 0 mm 3 mps 738 mmHg 77%
15:00 +14°C° 0 mm 4 mps 738 mmHg 78%
16:00 +13°C° 0 mm 4 mps 738 mmHg 79%
17:00 +13°C° 0 mm 3 mps 738 mmHg 82%
18:00 +12°C° 0 mm 3 mps 738 mmHg 85%
19:00 +13°C° 0 mm 2 mps 739 mmHg 88%
20:00 +12°C° 0 mm 2 mps 739 mmHg 89%
21:00 +12°C° 0 mm 2 mps 739 mmHg 90%
22:00 +11°C° 0 mm 1 mps 739 mmHg 91%
23:00 +12°C° 0.1 mm 1 mps 739 mmHg 91%

Tomorrow, 27 October, Tuesday

Time Temperature Precipitation Wind Pressure Humidity
00:00 +12°C° 0.1 mm 1 mps 739 mmHg 91%
01:00 +12°C° 0.1 mm 1 mps 739 mmHg 92%
02:00 +12°C° 0 mm 1 mps 739 mmHg 91%
03:00 +12°C° 0 mm 1 mps 739 mmHg 91%
04:00 +12°C° 0 mm 2 mps 739 mmHg 90%
05:00 +13°C° 0 mm 2 mps 739 mmHg 89%
06:00 +13°C° 0 mm 2 mps 740 mmHg 88%
07:00 +12°C° 0 mm 3 mps 740 mmHg 86%
08:00 +12°C° 0 mm 3 mps 740 mmHg 84%
09:00 +13°C° 0 mm 3 mps 740 mmHg 82%
10:00 +13°C° 0 mm 4 mps 740 mmHg 80%
11:00 +14°C° 0 mm 4 mps 740 mmHg 77%
12:00 +15°C° 0 mm 5 mps 740 mmHg 73%
13:00 +16°C° 0 mm 5 mps 740 mmHg 70%
14:00 +15°C° 0.1 mm 4 mps 740 mmHg 74%
15:00 +14°C° 0.1 mm 3 mps 741 mmHg 78%
16:00 +14°C° 0.1 mm 2 mps 741 mmHg 82%
17:00 +14°C° 0.1 mm 2 mps 741 mmHg 85%
18:00 +13°C° 0.1 mm 2 mps 742 mmHg 88%
19:00 +12°C° 0.1 mm 2 mps 742 mmHg 91%
20:00 +12°C° 0 mm 2 mps 742 mmHg 92%
21:00 +11°C° 0 mm 1 mps 743 mmHg 92%
22:00 +11°C° 0 mm 1 mps 743 mmHg 93%
23:00 +10°C° 0 mm 1 mps 743 mmHg 93%

Day after tomorrow, 28 October, Wednesday

Time Temperature Precipitation Wind Pressure Humidity
00:00 +10°C° 0 mm 1 mps 744 mmHg 94%
01:00 +10°C° 0 mm 1 mps 744 mmHg 94%
02:00 +9°C° 0 mm 1 mps 744 mmHg 93%
03:00 +8°C° 0 mm 0 mps 744 mmHg 92%
04:00 +8°C° 0 mm 0 mps 744 mmHg 91%
05:00 +9°C° 0 mm 1 mps 744 mmHg 91%
06:00 +9°C° 0 mm 1 mps 744 mmHg 91%
07:00 +8°C° 0 mm 1 mps 744 mmHg 91%
08:00 +9°C° 0 mm 2 mps 744 mmHg 84%
09:00 +12°C° 0 mm 2 mps 744 mmHg 77%
10:00 +13°C° 0 mm 2 mps 744 mmHg 69%
11:00 +14°C° 0 mm 2 mps 744 mmHg 65%
12:00 +14°C° 0 mm 3 mps 744 mmHg 62%
13:00 +16°C° 0 mm 3 mps 744 mmHg 58%
14:00 +15°C° 0 mm 2 mps 744 mmHg 62%
15:00 +14°C° 0 mm 2 mps 744 mmHg 67%
16:00 +14°C° 0 mm 2 mps 744 mmHg 71%
17:00 +13°C° 0 mm 2 mps 744 mmHg 74%
18:00 +12°C° 0 mm 2 mps 744 mmHg 76%
19:00 +10°C° 0 mm 3 mps 744 mmHg 79%
20:00 +10°C° 0 mm 2 mps 745 mmHg 78%
21:00 +10°C° 0 mm 2 mps 745 mmHg 77%
22:00 +10°C° 0 mm 2 mps 745 mmHg 76%
23:00 +10°C° 0 mm 2 mps 745 mmHg 76%

29 October, Thursday

Time Temperature Precipitation Wind Pressure Humidity
00:00 +9°C° 0 mm 2 mps 745 mmHg 75%
01:00 +9°C° 0 mm 2 mps 745 mmHg 75%
02:00 +9°C° 0 mm 2 mps 745 mmHg 74%
03:00 +10°C° 0 mm 2 mps 745 mmHg 73%
04:00 +10°C° 0 mm 2 mps 745 mmHg 73%
05:00 +10°C° 0 mm 2 mps 745 mmHg 73%
06:00 +10°C° 0 mm 2 mps 745 mmHg 73%
07:00 +10°C° 0 mm 2 mps 745 mmHg 73%
08:00 +11°C° 0 mm 3 mps 746 mmHg 70%
09:00 +12°C° 0 mm 3 mps 746 mmHg 68%
10:00 +13°C° 0 mm 3 mps 746 mmHg 66%
11:00 +14°C° 0 mm 4 mps 746 mmHg 65%
12:00 +14°C° 0 mm 5 mps 746 mmHg 65%
13:00 +14°C° 0 mm 5 mps 746 mmHg 64%
14:00 +13°C° 0 mm 4 mps 746 mmHg 67%
15:00 +13°C° 0 mm 3 mps 747 mmHg 70%
16:00 +13°C° 0 mm 2 mps 747 mmHg 72%
17:00 +12°C° 0 mm 3 mps 747 mmHg 74%
18:00 +11°C° 0 mm 3 mps 748 mmHg 75%
19:00 +10°C° 0 mm 3 mps 748 mmHg 76%
20:00 +10°C° 0 mm 3 mps 749 mmHg 77%
21:00 +10°C° 0 mm 3 mps 749 mmHg 78%
22:00 +9°C° 0 mm 3 mps 749 mmHg 79%
23:00 +9°C° 0 mm 3 mps 749 mmHg 80%

30 October, Friday

Time Temperature Precipitation Wind Pressure Humidity
00:00 +9°C° 0 mm 3 mps 749 mmHg 82%
01:00 +9°C° 0 mm 3 mps 749 mmHg 83%
02:00 +9°C° 0 mm 3 mps 749 mmHg 82%
03:00 +8°C° 0 mm 4 mps 749 mmHg 82%
04:00 +8°C° 0 mm 4 mps 749 mmHg 82%
05:00 +8°C° 0 mm 4 mps 749 mmHg 82%
06:00 +9°C° 0 mm 3 mps 749 mmHg 81%
07:00 +10°C° 0 mm 3 mps 749 mmHg 81%
08:00 +10°C° 0 mm 3 mps 749 mmHg 79%
09:00 +11°C° 0 mm 3 mps 750 mmHg 77%
10:00 +12°C° 0 mm 3 mps 750 mmHg 75%
11:00 +13°C° 0 mm 3 mps 750 mmHg 72%
12:00 +14°C° 0 mm 3 mps 750 mmHg 69%
13:00 +16°C° 0 mm 3 mps 749 mmHg 66%
14:00 +14°C° 0 mm 3 mps 749 mmHg 69%
15:00 +14°C° 0 mm 3 mps 749 mmHg 72%
16:00 +13°C° 0 mm 3 mps 749 mmHg 75%
17:00 +13°C° 0 mm 3 mps 749 mmHg 75%
18:00 +12°C° 0 mm 3 mps 749 mmHg 75%
19:00 +11°C° 0 mm 3 mps 750 mmHg 75%
20:00 +11°C° 0 mm 3 mps 750 mmHg 75%
21:00 +11°C° 0 mm 3 mps 750 mmHg 75%
22:00 +11°C° 0 mm 3 mps 750 mmHg 75%
23:00 +11°C° 0 mm 3 mps 750 mmHg 76%

31 October, Saturday

Time Temperature Precipitation Wind Pressure Humidity
00:00 +10°C° 0 mm 3 mps 750 mmHg 77%
01:00 +10°C° 0 mm 3 mps 750 mmHg 77%
02:00 +10°C° 0 mm 3 mps 750 mmHg 78%
03:00 +10°C° 0 mm 3 mps 749 mmHg 78%
04:00 +10°C° 0 mm 3 mps 749 mmHg 78%
05:00 +10°C° 0 mm 3 mps 749 mmHg 79%
06:00 +10°C° 0 mm 3 mps 749 mmHg 80%
07:00 +9°C° 0 mm 3 mps 749 mmHg 81%
Show more